This demonstration page uses our WeatherBlox Daily Observations layout. Learn more.

Left ArrowRight Arrow

Hourly Observations for August 4, 2017

Temp ( °F °C ) Dew Point ( °F °C ) Humidity (%) Winds ( mph kmh ) Pressure ( in mb ) Visibility ( mi km ) Precip ( " mm )
12:52 am 00:52 Mostly Cloudy 69 20.6 66 18.9 90 90 NW 7 11 30.03 1017 10 16 0.00 0.00
1:08 am 01:08 Partly Cloudy 68 20 66 18.9 93 93 NNW 6 9 30.03 1017 10 16 0.00 0.00
1:52 am 01:52 Partly Cloudy 68 20 66 18.9 93 93 NW 7 11 30.03 1017 10 16 0.00 0.00
2:52 am 02:52 Cloudy 69 20.6 63 17.2 81 81 N 12 19 30.02 1017 10 16 0.00 0.00
3:52 am 03:52 Mostly Cloudy 67 19.4 60 15.6 79 79 N 16 26 30.03 1017 10 16 0.00 0.00
4:52 am 04:52 Partly Cloudy 65 18.3 59 15 81 81 N 10 17 30.06 1018 10 16 0.00 0.00
5:52 am 05:52 Mostly Cloudy 64 17.8 59 15 84 84 N 9 15 30.06 1018 10 16 0.00 0.00
6:52 am 06:52 Sunny 62 16.7 57 13.9 84 84 N 9 15 30.08 1019 10 16 0.00 0.00
7:52 am 07:52 Cloudy 64 17.8 54 12.2 70 70 N 14 22 30.11 1020 10 16 0.00 0.00
8:52 am 08:52 Sunny 66 18.9 54 12.2 65 65 NNE 13 20 30.12 1020 10 16 0.00 0.00
9:52 am 09:52 Sunny 68 20 50 10 53 53 NE 15 24 30.14 1021 10 16 0.00 0.00
10:52 am 10:52 Sunny 71 21.7 51 10.6 49 49 NNE 13 20 30.14 1021 10 16 0.00 0.00
11:52 am 11:52 Sunny 73 22.8 47 8.3 40 40 NE 14 22 30.14 1021 10 16 0.00 0.00
12:52 pm 12:52 Sunny 74 23.3 47 8.3 38 38 NNE 3 6 30.12 1020 10 16 0.00 0.00
1:52 pm 13:52 Sunny 76 24.4 47 8.3 36 36 VRB 3 6 30.11 1020 10 16 0.00 0.00
2:52 pm 14:52 Sunny 79 26.1 47 8.3 32 32 NNE 6 9 30.09 1019 10 16 0.00 0.00
3:52 pm 15:52 Sunny 80 26.7 47 8.3 31 31 N 8 13 30.07 1018 10 16 0.00 0.00
4:52 pm 16:52 Sunny 79 26.1 45 7.2 30 30 VRB 6 9 30.07 1018 10 16 0.00 0.00
5:52 pm 17:52 Sunny 79 26.1 47 8.3 32 32 N 7 11 30.05 1018 10 16 0.00 0.00
6:52 pm 18:52 Sunny 78 25.6 46 7.8 32 32 N 6 9 30.04 1017 10 16 0.00 0.00
7:52 pm 19:52 Sunny 75 23.9 47 8.3 37 37 N 6 9 30.04 1017 10 16 0.00 0.00
8:52 pm 20:52 Clear 71 21.7 50 10 47 47 Calm 30.04 1017 10 16 0.00 0.00
9:52 pm 21:52 Clear 64 17.8 52 11.1 65 65 Calm 30.06 1018 10 16 0.00 0.00
10:52 pm 22:52 Clear 61 16.1 52 11.1 72 72 Calm 30.07 1018 10 16 0.00 0.00
11:52 pm 23:52 Clear 59 15 52 11.1 78 78 Calm 30.08 1019 10 16 0.00 0.00

Powered by AerisWeather